Flag for China Weather past 2 weeks in Suzhou, China

Now
68 °F

Partly sunny.


Feels Like: 68 °F
Forecast: 60 / 67 °F
Wind: 15 mph from Southeast

Location: Shanghai Hongqiao Airport


UV Index: 0 (Low)

Visibility: N/A


Pressure: 29.98 "Hg

Humidity: 69%

Dew point: 57 °F

Location of SuzhouLocation

Historic Weather in Suzhou

°F

Suzhou temperature yesterday

Maximum temperature yesterday: 72 °F (at 11:30 AM)
Minimum temperature yesterday: 50 °F (at 5:00 AM)
Average temperature yesterday: 62 °F

Past Weeks' High & Low Weather Summary

 TemperatureHumidityPressure
High81 °F (Apr 10, 1:00 PM)94% (Apr 12, 7:30 AM)30.21 "Hg (Apr 12, 7:30 AM)
Low48 °F (Apr 14, 5:00 AM)17% (Apr 23, 4:00 PM)29.77 "Hg (Apr 12, 3:00 PM)
Average61 °F73%29.99 "Hg
* Reported Apr 9 3:00 PM — Apr 24 3:30 PM, Suzhou, Weather by CustomWeather, © 2014

Note: Actual official high and low records may vary slightly from our data, if they occured in-between our weather recording intervals... More about our weather records

Advertising

Historic Weather Conditions — Data for Previous 24 hours

 ConditionsComfort  
Time TempWeatherWind HumidityBarometerVisibility
3:30 PM
Apr 24
70 °FPartly sunny.15 mph64%29.98 "HgN/A
3:00 PM70 °FPartly sunny.17 mph64%29.98 "HgN/A
2:30 PM70 °FPartly sunny.13 mph64%30.01 "HgN/A
2:00 PM70 °FPartly sunny.15 mph64%30.01 "HgN/A
1:30 PM70 °FPartly sunny.13 mph64%30.01 "HgN/A
1:00 PM70 °FPartly sunny.15 mph64%30.01 "HgN/A
12:30 PM70 °FPartly sunny.13 mph64%30.01 "HgN/A
12:00 PM70 °FPartly sunny.15 mph60%30.04 "HgN/A
11:30 AM72 °FScattered clouds.15 mph61%30.04 "HgN/A
11:00 AM72 °FPassing clouds.17 mph57%30.04 "HgN/A
10:30 AM72 °FPassing clouds.13 mph53%30.04 "HgN/A
10:00 AM70 °FPassing clouds.13 mph53%30.07 "HgN/A
9:30 AM68 °FSunny.13 mph56%30.07 "Hg10 mi
9:00 AM68 °FSunny.13 mph56%30.04 "Hg10 mi
8:30 AM66 °FSunny.13 mph64%30.04 "Hg10 mi
8:00 AM64 °FClear.10 mph68%30.04 "Hg4 mi
7:30 AM63 °FClear.8 mph73%30.04 "Hg4 mi
7:00 AM61 °FClear.8 mph77%30.04 "Hg4 mi
6:30 AM59 °FFog.8 mph82%30.01 "Hg3 mi
6:00 AM59 °FFog.8 mph82%30.01 "Hg3 mi
5:30 AM59 °FFog.10 mph77%30.01 "Hg2 mi
5:00 AM59 °FClear.10 mph77%29.98 "Hg4 mi
4:30 AM57 °FClear.8 mph82%29.98 "Hg4 mi
4:00 AM57 °FClear.8 mph82%29.98 "Hg4 mi
3:30 AM57 °FClear.8 mph82%29.98 "Hg4 mi
3:00 AM57 °FClear.8 mph82%29.98 "Hg4 mi
2:30 AM57 °FClear.8 mph82%29.98 "Hg4 mi
2:00 AM57 °FClear.8 mph82%30.01 "Hg4 mi
1:30 AM57 °FClear.8 mph82%30.01 "Hg4 mi
1:00 AM57 °FClear.8 mph77%30.01 "Hg4 mi
12:30 AM57 °FClear.6 mph77%30.01 "Hg4 mi
12:00 AM57 °FClear.6 mph77%30.01 "Hg5 mi
11:30 PM
Apr 23
59 °FPassing clouds.8 mph72%30.01 "HgN/A
11:00 PM59 °FClear.10 mph68%30.01 "Hg10 mi
10:30 PM59 °FClear.10 mph59%30.01 "Hg10 mi
10:00 PM59 °FClear.8 mph55%30.04 "Hg10 mi
9:30 PM61 °FClear.8 mph48%30.04 "Hg10 mi
9:00 PM61 °FClear.8 mph52%30.01 "Hg10 mi
8:30 PM61 °FClear.10 mph55%30.04 "Hg10 mi
8:00 PM61 °FClear.10 mph52%30.01 "Hg10 mi
7:30 PM61 °FClear.10 mph52%30.01 "Hg10 mi
7:00 PM63 °FClear.8 mph42%30.01 "Hg10 mi
6:30 PM64 °FClear.10 mph32%29.98 "Hg10 mi
6:00 PM64 °FSunny.10 mph28%29.98 "Hg10 mi
5:30 PM66 °FPassing clouds.8 mph28%29.98 "HgN/A
5:00 PM66 °FSunny.10 mph26%29.98 "Hg10 mi
4:30 PM68 °FSunny.10 mph23%29.98 "Hg10 mi
4:00 PM68 °FSunny.13 mph17%29.98 "Hg10 mi
Weather by CustomWeather, © 2014

See weather overview